[[[{"header":{"parameterUnit":"kt","parameterCategory":2,"dx":1,"dy":1,"la1":30.253999710083008,"la2":30.299108505249023,"lo1":-89.0895004272461,"lo2":-89.04439544677734,"nx":28,"ny":28,"refTime":"2022-10-19T09:00:00:Z","depth":"0","parameterNumber":2,"parameterNumberName":"U-component_of_CURRENTS"},"data":[0.2883,0.2906,0.2932,0.298,0.3046,0.3015,0.2982,0.2852,0.2799,0.2636,0.254,0.2535,0.2481,0.23,0.212,0.2133,0.1955,0.1857,0.1948,0.2292,0.2351,0.2408,0.2232,0.1835,0.1834,0.1243,0.1237,0.1233,0.2927,0.299,0.3048,0.3096,0.3161,0.3209,0.3203,0.3111,0.3056,0.3088,0.3082,0.302,0.302,0.306,0.3018,0.2892,0.2861,0.2783,0.2502,0.2516,0.3123,0.2963,0.2716,0.2716,0.2716,0.2716,0.2717,0.2717,0.3037,0.3065,0.3155,0.3161,0.3231,0.3276,0.3218,0.3258,0.3257,0.322,0.3341,0.3335,0.3384,0.3648,0.3726,0.3613,0.3709,0.3494,0.3427,0.3328,0.3132,0.3727,0.3767,0.3769,0.3772,0.3774,0.3776,0,0.3094,0.3141,0.3192,0.3247,0.3265,0.3287,0.3299,0.33,0.334,0.3365,0.3423,0.3486,0.3695,0.3754,0.3976,0.4088,0.3893,0.4129,0.3952,0.3419,0.3166,0.3118,0.3819,0.3896,0.3899,0.3902,0.3904,0.3906,0.3132,0.3176,0.326,0.3279,0.3305,0.3306,0.3313,0.3335,0.3356,0.3423,0.3449,0.3588,0.3652,0.3949,0.4099,0.4318,0.4158,0.421,0.412,0.3862,0.3777,0.363,0.357,0.3946,0.3941,0.3937,0.3933,0,0.3129,0.3221,0.3272,0.3342,0.3336,0.3334,0.3335,0.3358,0.3392,0.3426,0.3454,0.3543,0.3702,0.3855,0.4121,0.4175,0.4203,0.4407,0.412,0.4109,0.3898,0.3799,0.369,0.362,0.448,0.4479,0.4478,0,0.317,0.3194,0.3308,0.3336,0.3334,0.3365,0.336,0.3363,0.3404,0.3418,0.3477,0.3526,0.3692,0.383,0.397,0.4134,0.4217,0.4229,0.4257,0.4044,0.4015,0.3875,0.3768,0.4378,0.4377,0.4375,0.4374,0,0.3147,0.325,0.3311,0.3324,0.3372,0.3365,0.3359,0.3364,0.3362,0.3424,0.3451,0.3557,0.3628,0.3791,0.3925,0.3905,0.4181,0.4177,0.4204,0.4198,0.4061,0.4035,0.3932,0.4371,0.4371,0.437,0.437,0,0.3171,0.3247,0.3335,0.3357,0.3374,0.3376,0.3351,0.3354,0.3379,0.3386,0.3434,0.3473,0.3581,0.3589,0.381,0.3738,0.3859,0.3954,0.3964,0.3895,0.3875,0.3827,0.3881,0.3673,0.4061,0.4058,0.4056,0,0.3108,0.3247,0.3287,0.3321,0.3371,0.3352,0.3346,0.3342,0.3338,0.3358,0.3404,0.3452,0.3448,0.3493,0.3575,0.3698,0.3797,0.3676,0.3925,0.3933,0.3831,0.3915,0.3684,0.3845,0.4019,0.4023,0.4026,0,0.3069,0.3215,0.3223,0.3241,0.3286,0.3308,0.3308,0.3319,0.3323,0.3334,0.3357,0.3415,0.3438,0.3471,0.3509,0.36,0.3735,0.3634,0.364,0.3708,0.3976,0.3876,0.3891,0.3776,0.378,0.3783,0.3996,0,0.3092,0.3137,0.3183,0.3249,0.3262,0.3305,0.3322,0.3314,0.3296,0.3298,0.3339,0.338,0.3425,0.3447,0.3462,0.3564,0.3585,0.3594,0.3595,0.3645,0.3729,0.3752,0.3485,0.3485,0.3485,0.3485,0,0,0.3,0.3088,0.313,0.32,0.3213,0.3226,0.3266,0.3269,0.3295,0.3292,0.3284,0.3356,0.3382,0.3447,0.3458,0.3472,0.354,0.3474,0.3606,0.3619,0.3632,0.3715,0.3736,0.3486,0.3486,0.3486,0.3486,0,0.3031,0.3054,0.3113,0.3143,0.3211,0.3223,0.3236,0.3283,0.3273,0.3286,0.3297,0.3333,0.3368,0.3404,0.3429,0.3468,0.3525,0.3485,0.3496,0.3604,0.3616,0.3628,0.3711,0.3731,0.3486,0.3486,0.3486,0,0.2994,0.3053,0.3066,0.3146,0.3178,0.3219,0.322,0.3269,0.3269,0.3279,0.3274,0.3303,0.3344,0.3382,0.3402,0.3399,0.3518,0.3452,0.3453,0.3462,0.3574,0.3588,0.36,0.3443,0.3443,0.3443,0,0,0.301,0.305,0.3118,0.3156,0.319,0.3213,0.3232,0.3241,0.327,0.3268,0.3273,0.3297,0.3333,0.3348,0.338,0.3417,0.3474,0.3445,0.3447,0.3448,0.3457,0.3569,0.3582,0.3441,0.3441,0.3441,0,0,0.3017,0.3103,0.3092,0.3157,0.3188,0.3243,0.3263,0.3256,0.326,0.3259,0.3267,0.3273,0.3308,0.3329,0.3306,0.3383,0.3379,0.3384,0.336,0.3363,0.3365,0.3365,0.3313,0,0,0,0,0,0.3055,0.3099,0.3088,0.3105,0.3182,0.3244,0.3249,0.3257,0.3241,0.3243,0.3248,0.3258,0.3323,0.3302,0.3311,0.3336,0.3422,0.3426,0.3429,0.3407,0.341,0.3413,0,0,0,0,0,0,0.3062,0.3084,0.3088,0.315,0.3168,0.3243,0.3228,0.3229,0.3241,0.3237,0.3255,0.3259,0.3271,0.3299,0.3307,0.333,0.3311,0.3424,0.3426,0.3429,0.3408,0.3411,0.3413,0,0,0,0,0,0.3068,0.3086,0.3211,0.3148,0.3163,0.3191,0.3226,0.3227,0.3219,0.326,0.3262,0.3227,0.3271,0.3278,0.3304,0.3326,0.3305,0.3308,0.3425,0.3428,0.343,0.341,0,0,0,0,0,0,0.3073,0.3062,0.3213,0.3217,0.314,0.3184,0.3193,0.3225,0.324,0.3244,0.3235,0.3233,0.3272,0.3277,0.3283,0.3324,0.3301,0.3304,0.3306,0.3427,0.3429,0.343,0,0,0,0,0,0,0.3054,0.3066,0.3215,0.3204,0.3207,0.3179,0.3187,0.3221,0.324,0.3211,0.3212,0.3234,0.3277,0.3277,0.3281,0.3332,0.3298,0.33,0.3302,0.3304,0.3429,0.343,0,0,0,0,0,0,0.3059,0.3069,0.3202,0.3204,0.3206,0.3245,0.3208,0.3285,0.3229,0.3209,0.3227,0.3226,0.3278,0.3281,0.328,0.3329,0.3331,0.3298,0.33,0.3301,0.3302,0,0,0,0,0,0,0,0.3062,0.2999,0.3202,0.3204,0.3206,0.326,0.326,0.3259,0.3229,0.3228,0.3227,0.3226,0.3282,0.3285,0.3288,0.3326,0,0,0.3297,0.3299,0,0,0,0,0,0,0,0,0.2995,0.2998,0.3202,0.3204,0.3205,0.326,0.326,0.3259,0.3229,0.3228,0.3227,0.3227,0.3282,0.3285,0.3287,0,0,0,0,0,0,0,0,0,0,0,0,0,0,0,0.3202,0.3204,0,0.326,0.326,0.3259,0.3229,0.3228,0.3227,0.3227,0.3283,0.3285,0.3287,0,0,0,0,0,0,0,0,0,0,0,0,0,0,0,0,0,0,0,0,0,0,0,0,0,0,0,0,0,0,0,0,0,0,0,0,0,0,0,0,0,0,0,0,0,0,0,0,0,0,0,0,0,0,0,0,0,0,0,0,0,0,0,0,0,0,0,0,0]}],[{"header":{"parameterUnit":"kt","parameterCategory":2,"dx":1,"dy":1,"la1":30.253999710083008,"la2":30.299108505249023,"lo1":-89.0895004272461,"lo2":-89.04439544677734,"nx":28,"ny":28,"refTime":"2022-10-19T09:00:00:Z","depth":"0","parameterNumber":3,"parameterNumberName":"V-component_of_CURRENTS"},"data":[-0.003,0.0067,0.0063,0.0083,0.0082,0.0046,0.0036,0.0063,0.0114,0.0174,0.0252,0.0277,0.0305,0.0304,0.0256,0.0218,0.0209,0.021,0.0152,0.0106,0.0091,0.0077,0.0075,0.0215,0.0215,0.031,0.031,0.0311,-0.0136,-0.0105,0.0005,0.0054,0.0074,0.0064,0.0119,0.0127,0.0141,0.0222,0.0233,0.0299,0.0269,0.0224,0.0157,0.0085,0.0068,0.0045,0.0096,0.0099,0.0006,0.0005,0.0133,0.0133,0.0133,0.0133,0.0133,0.0133,-0.0332,-0.0249,-0.0194,-0.0082,-0.0012,-0.0005,0.0055,0.01,0.017,0.0214,0.0247,0.0274,0.0265,0.0094,-0.0001,-0.0054,-0.0112,-0.0106,-0.0122,-0.0119,-0.0104,-0.0289,-0.0147,-0.0148,-0.0149,-0.015,-0.0151,0,-0.0509,-0.0486,-0.041,-0.0299,-0.0196,-0.0111,-0.0017,0.0058,0.0085,0.0177,0.0214,0.0226,0.0191,0.0122,-0.0022,-0.0133,-0.0182,-0.0232,-0.0222,-0.0167,-0.0198,-0.0231,-0.0416,-0.0187,-0.0188,-0.0189,-0.019,-0.0191,-0.0683,-0.064,-0.0559,-0.0486,-0.0451,-0.031,-0.0221,-0.017,-0.0094,0.0015,0.0082,0.0132,0.0122,0.0045,-0.009,-0.0225,-0.0283,-0.0258,-0.0338,-0.0374,-0.0436,-0.0448,-0.0447,-0.0206,-0.0204,-0.0203,-0.0201,0,-0.0728,-0.0789,-0.0709,-0.066,-0.0621,-0.0502,-0.0391,-0.0278,-0.0218,-0.0067,-0.0023,0.0008,-0.0014,-0.0106,-0.0162,-0.0283,-0.0323,-0.0402,-0.0366,-0.04,-0.0465,-0.0496,-0.0271,-0.0249,-0.042,-0.042,-0.0419,0,-0.0848,-0.0807,-0.0841,-0.0814,-0.0664,-0.0713,-0.0535,-0.0493,-0.0388,-0.0273,-0.0274,-0.0189,-0.0253,-0.0253,-0.039,-0.046,-0.0392,-0.0588,-0.0627,-0.0572,-0.0577,-0.0589,-0.0624,-0.0517,-0.0518,-0.0518,-0.0519,0,-0.0899,-0.0954,-0.0917,-0.0922,-0.0923,-0.0849,-0.0818,-0.0733,-0.0652,-0.0522,-0.0454,-0.0379,-0.0347,-0.0375,-0.053,-0.0591,-0.0507,-0.0605,-0.0682,-0.069,-0.0635,-0.0646,-0.0374,-0.0519,-0.052,-0.052,-0.052,0,-0.1021,-0.1045,-0.1052,-0.1016,-0.1029,-0.1007,-0.0879,-0.0858,-0.0758,-0.0741,-0.0664,-0.0691,-0.0602,-0.0747,-0.0704,-0.0762,-0.0824,-0.0875,-0.0874,-0.0948,-0.11,-0.097,-0.0725,-0.0714,-0.0961,-0.0964,-0.0966,0,-0.0993,-0.1075,-0.1162,-0.1148,-0.1179,-0.1228,-0.117,-0.1156,-0.1145,-0.1063,-0.1047,-0.0985,-0.1118,-0.1087,-0.1038,-0.1089,-0.102,-0.1113,-0.1113,-0.1113,-0.1164,-0.0938,-0.0854,-0.0775,-0.1003,-0.0999,-0.0996,0,-0.1014,-0.1184,-0.1193,-0.1193,-0.1322,-0.1369,-0.1335,-0.1344,-0.1269,-0.134,-0.1226,-0.1224,-0.1253,-0.1243,-0.129,-0.1231,-0.1094,-0.1331,-0.1332,-0.1315,-0.0956,-0.099,-0.097,-0.1113,-0.1107,-0.1102,-0.1025,0,-0.1087,-0.1151,-0.1192,-0.132,-0.1374,-0.1437,-0.1546,-0.1548,-0.1592,-0.1641,-0.1553,-0.1615,-0.1586,-0.1581,-0.1645,-0.147,-0.1535,-0.1587,-0.1659,-0.1497,-0.1494,-0.147,-0.1804,-0.1808,-0.1811,-0.1813,0,0,-0.1042,-0.117,-0.1318,-0.1399,-0.1451,-0.1616,-0.166,-0.1717,-0.1875,-0.1842,-0.1927,-0.1896,-0.1934,-0.1804,-0.1778,-0.1804,-0.1799,-0.18,-0.1591,-0.1566,-0.1543,-0.153,-0.1504,-0.1819,-0.182,-0.1821,-0.1822,0,-0.1121,-0.122,-0.1284,-0.1383,-0.1569,-0.1677,-0.1692,-0.1907,-0.1943,-0.196,-0.2037,-0.2009,-0.203,-0.2019,-0.2011,-0.1859,-0.1909,-0.1856,-0.1697,-0.162,-0.1591,-0.1566,-0.1547,-0.1521,-0.183,-0.1829,-0.1829,0,-0.115,-0.1293,-0.1338,-0.1551,-0.1685,-0.1772,-0.1922,-0.204,-0.2058,-0.219,-0.2194,-0.223,-0.2253,-0.2196,-0.2167,-0.2207,-0.2009,-0.2089,-0.2073,-0.2049,-0.1975,-0.1941,-0.1912,-0.2296,-0.2297,-0.2298,0,0,-0.1195,-0.1269,-0.1514,-0.1593,-0.1669,-0.1869,-0.1949,-0.206,-0.2177,-0.2212,-0.2273,-0.2297,-0.2285,-0.2272,-0.2289,-0.2212,-0.222,-0.2141,-0.212,-0.2101,-0.2067,-0.1988,-0.1956,-0.2302,-0.2302,-0.2302,0,0,-0.1242,-0.1496,-0.1558,-0.1678,-0.1824,-0.2079,-0.2123,-0.2215,-0.2276,-0.2274,-0.2366,-0.2378,-0.2325,-0.2356,-0.2407,-0.2283,-0.2379,-0.237,-0.225,-0.2223,-0.2202,-0.2163,-0.25,0,0,0,0,0,-0.1422,-0.1461,-0.1513,-0.1565,-0.1861,-0.2038,-0.2075,-0.2247,-0.2292,-0.2303,-0.2359,-0.2404,-0.2406,-0.2454,-0.2455,-0.2356,-0.2356,-0.2347,-0.2337,-0.2168,-0.2139,-0.2115,0,0,0,0,0,0,-0.1444,-0.1505,-0.1515,-0.177,-0.184,-0.2038,-0.2161,-0.2206,-0.2295,-0.2313,-0.2396,-0.2407,-0.2476,-0.2457,-0.2457,-0.236,-0.25,-0.2352,-0.2344,-0.2337,-0.2158,-0.2134,-0.2114,0,0,0,0,0,-0.1463,-0.1512,-0.1943,-0.177,-0.183,-0.2071,-0.216,-0.22,-0.2255,-0.2379,-0.2397,-0.2381,-0.2473,-0.2476,-0.2457,-0.2358,-0.2501,-0.2501,-0.2347,-0.2341,-0.2335,-0.2146,0,0,0,0,0,0,-0.1477,-0.1525,-0.1958,-0.1983,-0.1782,-0.2063,-0.2112,-0.2193,-0.2313,-0.2341,-0.2365,-0.2377,-0.2471,-0.2474,-0.2476,-0.2353,-0.2501,-0.2501,-0.2501,-0.2342,-0.2337,-0.2333,0,0,0,0,0,0,-0.1501,-0.1544,-0.197,-0.1976,-0.2003,-0.2053,-0.2097,-0.2087,-0.2305,-0.2287,-0.2306,-0.2368,-0.2416,-0.2472,-0.2474,-0.2455,-0.2501,-0.2501,-0.2501,-0.2501,-0.2338,-0.2334,0,0,0,0,0,0,-0.1522,-0.1559,-0.1969,-0.199,-0.2013,-0.2296,-0.2038,-0.229,-0.2444,-0.2271,-0.245,-0.2453,-0.2407,-0.2415,-0.2472,-0.2452,-0.2454,-0.2501,-0.2501,-0.2501,-0.2501,0,0,0,0,0,0,0,-0.154,-0.1253,-0.1826,-0.2001,-0.2022,-0.2218,-0.2223,-0.2229,-0.2444,-0.2447,-0.2449,-0.2452,-0.2503,-0.2503,-0.2502,-0.245,0,0,-0.2501,-0.2501,0,0,0,0,0,0,0,0,-0.1241,-0.125,-0.1826,-0.1833,-0.1839,-0.2219,-0.2223,-0.2227,-0.2445,-0.2447,-0.2449,-0.2451,-0.2503,-0.2503,-0.2502,0,0,0,0,0,0,0,0,0,0,0,0,0,0,0,-0.1827,-0.1832,0,-0.2219,-0.2223,-0.2227,-0.2445,-0.2447,-0.2448,-0.245,-0.2503,-0.2503,-0.2502,0,0,0,0,0,0,0,0,0,0,0,0,0,0,0,0,0,0,0,0,0,0,0,0,0,0,0,0,0,0,0,0,0,0,0,0,0,0,0,0,0,0,0,0,0,0,0,0,0,0,0,0,0,0,0,0,0,0,0,0,0,0,0,0,0,0,0,0,0]}]],[[{"header":{"parameterUnit":"kt","parameterCategory":2,"dx":1,"dy":1,"la1":30.253999710083008,"la2":30.299108505249023,"lo1":-89.0895004272461,"lo2":-89.04439544677734,"nx":28,"ny":28,"refTime":"2022-10-19T09:00:00:Z","depth":"2","parameterNumber":2,"parameterNumberName":"U-component_of_CURRENTS"},"data":[0.2472,0.2386,0.2346,0.236,0.245,0.2383,0.2293,0.2095,0.192,0.1593,0.1381,0.1419,0.1467,0.1146,0.1234,0.1166,0.1542,0.1153,0.1939,0.2119,0.219,0.2455,0.2153,0,0,0,0,0,0.256,0.2557,0.2581,0.2584,0.2649,0.2727,0.2678,0.2523,0.2375,0.2329,0.2248,0.183,0.1685,0.175,0.1672,0.1733,0.1844,0.1717,0.1814,0.1895,0.1968,0.172,0.1167,0.1165,0.1163,0.1161,0,0,0.2695,0.2697,0.2729,0.2701,0.2794,0.2818,0.2746,0.2786,0.2748,0.2645,0.2785,0.259,0.2571,0.2343,0.2401,0.2467,0.2715,0.2639,0.2675,0.272,0.2502,0.2333,0.2158,0.2162,0.2166,0.217,0.2173,0,0.2695,0.2749,0.2798,0.2816,0.2851,0.2902,0.294,0.2927,0.301,0.3021,0.3037,0.3038,0.3102,0.2938,0.2982,0.3053,0.3277,0.3144,0.3813,0.3048,0.2894,0.2897,0.2917,0.2862,0.287,0.2877,0.2881,0.2885,0.2666,0.2733,0.2834,0.2849,0.2896,0.2945,0.2975,0.3041,0.3068,0.3175,0.3198,0.3312,0.3299,0.3477,0.3498,0.3613,0.3818,0.3352,0.3237,0.3697,0.37,0.3691,0.368,0.2977,0.2966,0.2956,0.2948,0,0.264,0.2727,0.2813,0.2915,0.2927,0.2963,0.3011,0.3051,0.3126,0.3187,0.3227,0.3332,0.3453,0.3598,0.3865,0.3839,0.3974,0.3963,0.3568,0.352,0.3739,0.3718,0.3823,0.3814,0.3806,0.3799,0.3794,0,0.265,0.2712,0.2816,0.2876,0.2917,0.2975,0.3024,0.3048,0.3127,0.3166,0.3255,0.3313,0.3505,0.3636,0.3778,0.3833,0.403,0.3849,0.386,0.3576,0.3522,0.4078,0.4059,0.4222,0.422,0.4219,0.4217,0,0.2603,0.2719,0.2807,0.2848,0.2923,0.2953,0.2975,0.303,0.3053,0.3159,0.3202,0.3348,0.344,0.3611,0.3737,0.3726,0.3992,0.4013,0.3848,0.3829,0.36,0.3548,0.4215,0.4215,0.4214,0.4214,0.4213,0,0.2598,0.2681,0.2798,0.2839,0.287,0.291,0.2956,0.2991,0.3059,0.3091,0.3179,0.3232,0.3383,0.3382,0.3631,0.355,0.3672,0.3768,0.3779,0.3506,0.347,0.3306,0.3313,0.3878,0.3875,0.3872,0.3869,0,0.2492,0.2642,0.2706,0.2777,0.2835,0.2865,0.2889,0.2935,0.2963,0.3026,0.3104,0.319,0.3192,0.3262,0.3363,0.3495,0.3608,0.3482,0.3736,0.3743,0.3428,0.3489,0.3154,0.3288,0.383,0.3834,0.3837,0,0.2427,0.2575,0.2595,0.2639,0.2749,0.2784,0.2815,0.2877,0.2906,0.2969,0.3038,0.3129,0.318,0.3228,0.329,0.3399,0.3543,0.3424,0.3431,0.3477,0.3791,0.3475,0.3472,0.3583,0.3587,0.3591,0.3806,0,0.2395,0.2483,0.252,0.2641,0.27,0.2764,0.2807,0.2838,0.2854,0.2894,0.2983,0.3052,0.3145,0.3185,0.32,0.334,0.335,0.3361,0.3357,0.3435,0.3518,0.3543,0.3258,0.3259,0.3259,0.3259,0,0,0.2289,0.2411,0.2491,0.2581,0.2646,0.2683,0.2751,0.2774,0.2854,0.288,0.2872,0.3011,0.3058,0.3161,0.3185,0.3216,0.3279,0.3221,0.3392,0.3407,0.342,0.3503,0.3526,0.3259,0.3259,0.3259,0.3259,0,0.2279,0.2375,0.2461,0.2532,0.2653,0.2679,0.2703,0.278,0.2803,0.286,0.2884,0.2957,0.3029,0.3089,0.3124,0.3205,0.3253,0.3236,0.327,0.3389,0.3403,0.3416,0.3499,0.352,0.326,0.326,0.3259,0,0.2256,0.2346,0.2395,0.2532,0.2586,0.2648,0.2671,0.2747,0.2779,0.2805,0.2853,0.2897,0.2957,0.3027,0.3067,0.307,0.3243,0.3172,0.3174,0.3176,0.3298,0.3315,0.3329,0.3139,0.3138,0.3137,0,0,0.2256,0.2345,0.2451,0.253,0.2574,0.2643,0.2702,0.2736,0.2779,0.2801,0.2836,0.2888,0.2935,0.2976,0.3018,0.31,0.3153,0.3152,0.3158,0.3163,0.3166,0.3289,0.3305,0.3134,0.3134,0.3134,0,0,0.2222,0.2353,0.2397,0.2507,0.2581,0.2646,0.2711,0.2741,0.2791,0.2791,0.2817,0.2828,0.2891,0.2934,0.2886,0.3033,0.3017,0.3028,0.2989,0.2997,0.3003,0.2987,0.2886,0,0,0,0,0,0.2261,0.2338,0.2377,0.241,0.2557,0.2634,0.2656,0.2726,0.2726,0.2761,0.2785,0.2795,0.292,0.2877,0.2891,0.2939,0.3092,0.3099,0.3106,0.3075,0.3083,0.309,0,0,0,0,0,0,0.2273,0.2304,0.2376,0.2443,0.2481,0.263,0.2626,0.2644,0.2723,0.2726,0.2788,0.2796,0.281,0.2871,0.2884,0.2929,0.2882,0.3095,0.3101,0.3107,0.3078,0.3084,0.309,0,0,0,0,0,0.2284,0.2309,0.2525,0.2443,0.2476,0.2591,0.2623,0.2639,0.2687,0.2753,0.2763,0.2743,0.281,0.2822,0.2879,0.2923,0.2873,0.2878,0.3099,0.3104,0.3108,0.3081,0,0,0,0,0,0,0.2292,0.2304,0.2534,0.2549,0.2432,0.2584,0.2605,0.2633,0.2708,0.2724,0.2707,0.2708,0.281,0.282,0.283,0.292,0.2866,0.2871,0.2874,0.3102,0.3106,0.311,0,0,0,0,0,0,0.2293,0.2314,0.2541,0.2522,0.2535,0.2578,0.2596,0.2647,0.2706,0.2652,0.2659,0.2706,0.2791,0.2818,0.2826,0.2904,0.2861,0.2865,0.2868,0.287,0.3106,0.3109,0,0,0,0,0,0,0.2304,0.2323,0.2518,0.2527,0.2538,0.2694,0.2622,0.2759,0.2733,0.2645,0.2731,0.273,0.2789,0.2798,0.2823,0.2898,0.2902,0.2861,0.2864,0.2866,0.2868,0,0,0,0,0,0,0,0.2313,0.2162,0.2467,0.2531,0.254,0.2688,0.2691,0.2693,0.2732,0.2732,0.2731,0.273,0.2835,0.284,0.2845,0.2893,0,0,0.2861,0.2863,0,0,0,0,0,0,0,0,0.2157,0.2161,0.2467,0.2471,0.2475,0.2689,0.269,0.2692,0.2732,0.2732,0.2731,0.273,0.2837,0.2841,0.2845,0,0,0,0,0,0,0,0,0,0,0,0,0,0,0,0.2468,0.2471,0,0.2689,0.269,0.2692,0.2732,0.2732,0.2731,0.2731,0.2838,0.2841,0.2844,0,0,0,0,0,0,0,0,0,0,0,0,0,0,0,0,0,0,0,0,0,0,0,0,0,0,0,0,0,0,0,0,0,0,0,0,0,0,0,0,0,0,0,0,0,0,0,0,0,0,0,0,0,0,0,0,0,0,0,0,0,0,0,0,0,0,0,0,0]}],[{"header":{"parameterUnit":"kt","parameterCategory":2,"dx":1,"dy":1,"la1":30.253999710083008,"la2":30.299108505249023,"lo1":-89.0895004272461,"lo2":-89.04439544677734,"nx":28,"ny":28,"refTime":"2022-10-19T09:00:00:Z","depth":"2","parameterNumber":3,"parameterNumberName":"V-component_of_CURRENTS"},"data":[0.0431,0.061,0.0648,0.0738,0.0745,0.0757,0.0792,0.0847,0.0917,0.103,0.1057,0.1119,0.0973,0.0858,0.0727,0.0593,0.0465,0.0568,0.0582,0.0451,0.0432,0.0283,0.0306,0,0,0,0,0,0.0277,0.0367,0.0504,0.0616,0.0654,0.0612,0.0691,0.0743,0.0817,0.0874,0.0924,0.0921,0.0891,0.076,0.0588,0.051,0.0421,0.0461,0.0348,0.033,0.0312,0.0333,0.0501,0.05,0.0499,0.0498,0,0,0.0052,0.0169,0.0274,0.0419,0.0485,0.0507,0.0585,0.0609,0.0687,0.0765,0.0749,0.0798,0.0749,0.0695,0.0558,0.0412,0.0395,0.0326,0.0313,0.0297,0.0327,0.0318,0.0488,0.0488,0.0487,0.0487,0.0486,0,-0.0082,-0.0065,0.0034,0.0176,0.027,0.0346,0.0412,0.0489,0.0464,0.0543,0.0587,0.0623,0.0593,0.0554,0.0468,0.0374,0.0198,0.0222,0.0075,0.0069,0.005,-0.0012,-0.0037,0.0168,0.0165,0.0163,0.0162,0.0161,-0.0212,-0.0179,-0.0087,-0.0001,0.0032,0.0134,0.0197,0.0207,0.0268,0.0321,0.0376,0.0414,0.0443,0.04,0.0285,0.0186,0.0062,0.0162,0.0095,-0.0081,-0.0138,-0.0159,-0.0178,0.0135,0.0138,0.0141,0.0143,0,-0.0247,-0.0273,-0.0199,-0.016,-0.013,-0.0045,0.0036,0.0115,0.013,0.0242,0.0268,0.0274,0.0258,0.0165,0.0085,0.0009,-0.0047,-0.0069,-0.006,-0.0088,-0.0192,-0.0207,0.0008,0.0013,0.0016,0.002,0.0022,0,-0.0325,-0.0303,-0.0276,-0.0277,-0.0161,-0.0213,-0.0094,-0.0062,-0.0006,0.0077,0.0051,0.0107,0.0014,0.0005,-0.0126,-0.0152,-0.0163,-0.0238,-0.0272,-0.0266,-0.0263,-0.0408,-0.0419,-0.0312,-0.0313,-0.0313,-0.0313,0,-0.0354,-0.0353,-0.0318,-0.0343,-0.0326,-0.0291,-0.0273,-0.0232,-0.0166,-0.0098,-0.0058,-0.0053,-0.0054,-0.0106,-0.0238,-0.0298,-0.0251,-0.0356,-0.0334,-0.0333,-0.0242,-0.0236,-0.0314,-0.0314,-0.0314,-0.0314,-0.0314,0,-0.0411,-0.0403,-0.0393,-0.0353,-0.0353,-0.0363,-0.0297,-0.0294,-0.0239,-0.0241,-0.0231,-0.0261,-0.0248,-0.0365,-0.038,-0.0421,-0.0488,-0.0544,-0.0545,-0.0398,-0.0522,-0.0475,-0.0356,-0.0635,-0.0637,-0.0639,-0.0641,0,-0.0379,-0.0397,-0.0456,-0.0448,-0.0436,-0.0507,-0.0466,-0.0491,-0.0492,-0.0467,-0.0488,-0.0463,-0.0583,-0.0603,-0.0606,-0.0652,-0.064,-0.0701,-0.0649,-0.0646,-0.0593,-0.0484,-0.045,-0.0396,-0.0667,-0.0664,-0.0662,0,-0.0387,-0.0447,-0.046,-0.0455,-0.0575,-0.0602,-0.058,-0.0593,-0.0556,-0.0674,-0.0625,-0.0629,-0.0707,-0.066,-0.073,-0.0717,-0.0694,-0.0768,-0.0766,-0.078,-0.0625,-0.0537,-0.0512,-0.0733,-0.0728,-0.0725,-0.0682,0,-0.0392,-0.0441,-0.0443,-0.0522,-0.0582,-0.0642,-0.0708,-0.0748,-0.0817,-0.0888,-0.0858,-0.0897,-0.0873,-0.0915,-0.0912,-0.0843,-0.0866,-0.0894,-0.0898,-0.0843,-0.0838,-0.0822,-0.0998,-0.0997,-0.0996,-0.0996,0,0,-0.0366,-0.0441,-0.0535,-0.0578,-0.065,-0.0781,-0.0815,-0.086,-0.1019,-0.1011,-0.1078,-0.1056,-0.1057,-0.0962,-0.0972,-0.0977,-0.096,-0.0952,-0.0877,-0.0864,-0.0852,-0.0844,-0.083,-0.0995,-0.0994,-0.0994,-0.0994,0,-0.0379,-0.0474,-0.0505,-0.0593,-0.0742,-0.0818,-0.0842,-0.1023,-0.1074,-0.1093,-0.1151,-0.1157,-0.1098,-0.1089,-0.1048,-0.098,-0.0981,-0.0992,-0.0914,-0.0876,-0.0864,-0.0853,-0.0844,-0.0832,-0.0992,-0.0992,-0.0992,0,-0.0403,-0.0502,-0.0555,-0.0704,-0.0792,-0.0847,-0.0984,-0.1096,-0.1133,-0.1191,-0.1223,-0.1242,-0.1171,-0.1128,-0.1098,-0.1101,-0.0988,-0.1033,-0.1033,-0.0945,-0.0903,-0.0889,-0.0878,-0.103,-0.1031,-0.1032,0,0,-0.0407,-0.0475,-0.0643,-0.072,-0.0755,-0.0931,-0.1019,-0.1134,-0.1199,-0.1233,-0.127,-0.1252,-0.1195,-0.1169,-0.1128,-0.1059,-0.1014,-0.1043,-0.1041,-0.104,-0.0954,-0.0909,-0.0897,-0.1034,-0.1034,-0.1034,0,0,-0.0414,-0.059,-0.0663,-0.0759,-0.088,-0.1062,-0.1117,-0.1232,-0.1275,-0.1283,-0.13,-0.1291,-0.1237,-0.12,-0.1235,-0.115,-0.115,-0.1141,-0.12,-0.1197,-0.1195,-0.1111,-0.1267,0,0,0,0,0,-0.0519,-0.0557,-0.0622,-0.0664,-0.09,-0.102,-0.1058,-0.1232,-0.1302,-0.1326,-0.1335,-0.1343,-0.1227,-0.1258,-0.124,-0.1237,-0.1065,-0.106,-0.1054,-0.1112,-0.1109,-0.1107,0,0,0,0,0,0,-0.0536,-0.0577,-0.0623,-0.0797,-0.0857,-0.1019,-0.1129,-0.1175,-0.1303,-0.1322,-0.1347,-0.1342,-0.1343,-0.1266,-0.125,-0.1248,-0.1273,-0.1063,-0.1058,-0.1054,-0.1111,-0.1109,-0.1107,0,0,0,0,0,-0.0551,-0.0585,-0.0907,-0.0801,-0.0852,-0.1093,-0.1129,-0.1169,-0.1263,-0.1297,-0.1306,-0.1396,-0.1342,-0.1328,-0.1256,-0.1256,-0.1283,-0.1277,-0.106,-0.1056,-0.1053,-0.111,0,0,0,0,0,0,-0.0562,-0.061,-0.0923,-0.0949,-0.0815,-0.1089,-0.1129,-0.1162,-0.1227,-0.1248,-0.1338,-0.1349,-0.134,-0.133,-0.132,-0.1261,-0.1292,-0.1286,-0.1282,-0.1057,-0.1054,-0.1052,0,0,0,0,0,0,-0.0596,-0.0627,-0.0936,-0.0942,-0.097,-0.1083,-0.1119,-0.1049,-0.1214,-0.1256,-0.1276,-0.134,-0.1275,-0.1331,-0.1323,-0.1216,-0.1298,-0.1293,-0.1289,-0.1287,-0.1055,-0.1053,0,0,0,0,0,0,-0.0614,-0.0642,-0.0936,-0.0956,-0.098,-0.1268,-0.1014,-0.1188,-0.1415,-0.124,-0.1422,-0.1425,-0.1268,-0.1267,-0.1325,-0.1221,-0.1217,-0.1298,-0.1295,-0.1292,-0.129,0,0,0,0,0,0,0,-0.0629,-0.0379,-0.079,-0.0968,-0.0989,-0.1189,-0.1194,-0.1199,-0.1416,-0.1419,-0.1422,-0.1424,-0.133,-0.1324,-0.1318,-0.1226,0,0,-0.1299,-0.1296,0,0,0,0,0,0,0,0,-0.0374,-0.0378,-0.0791,-0.0797,-0.0803,-0.119,-0.1194,-0.1198,-0.1417,-0.1419,-0.1421,-0.1423,-0.1329,-0.1324,-0.1319,0,0,0,0,0,0,0,0,0,0,0,0,0,0,0,-0.0791,-0.0796,0,-0.119,-0.1194,-0.1197,-0.1417,-0.1419,-0.142,-0.1422,-0.1327,-0.1323,-0.1319,0,0,0,0,0,0,0,0,0,0,0,0,0,0,0,0,0,0,0,0,0,0,0,0,0,0,0,0,0,0,0,0,0,0,0,0,0,0,0,0,0,0,0,0,0,0,0,0,0,0,0,0,0,0,0,0,0,0,0,0,0,0,0,0,0,0,0,0,0]}]],[[{"header":{"parameterUnit":"kt","parameterCategory":2,"dx":1,"dy":1,"la1":30.253999710083008,"la2":30.299108505249023,"lo1":-89.0895004272461,"lo2":-89.04439544677734,"nx":28,"ny":28,"refTime":"2022-10-19T09:00:00:Z","depth":"4","parameterNumber":2,"parameterNumberName":"U-component_of_CURRENTS"},"data":[-0.0371,-0.028,-0.026,-0.0182,-0.0127,-0.0049,-0.0003,0.0134,0.0117,0.0335,0.03,0.0508,0.0433,0.0507,0.0387,0.0389,0.036,0.0432,0.043,0.0412,0.0415,0.0418,0.0738,0,0,0,0,0,-0.0416,-0.0383,-0.0238,-0.0091,-0.0011,0.0101,0.0273,0.0448,0.0658,0.0566,0.0697,0.0557,0.05,0.0536,0.0414,0.0519,0.0405,0.0379,0.0359,0.0414,0.0418,0.0728,0,0,0,0,0,0,-0.0497,-0.0481,-0.0328,-0.0067,0.0099,0.0154,0.0368,0.0524,0.0678,0.0812,0.0784,0.0744,0.0855,0.0766,0.0506,0.0384,0.046,0.0431,0.0433,0.0436,0.0681,0.0684,0.0406,0,0,0,0,0,-0.0512,-0.0447,-0.0361,-0.0093,0.0186,0.0358,0.0672,0.0747,0.0978,0.1132,0.1053,0.1036,0.09,0.0846,0.0605,0.0393,0.0475,0.0331,0.0337,0.0653,0.0644,0.0563,0.0579,0.0431,0.0431,0.0432,0.0432,0,-0.0507,-0.0446,-0.0207,-0.0069,0.0112,0.0476,0.0707,0.1027,0.112,0.1237,0.1184,0.1211,0.1214,0.0851,0.0832,0.0514,0.0518,0.0338,0.0675,0.0653,0.0566,0.0582,0.0598,0.0435,0.0435,0.0434,0.0434,0,-0.0436,-0.0389,-0.0258,0.0038,0.0187,0.0408,0.0836,0.1003,0.1191,0.1265,0.1317,0.1421,0.1317,0.1187,0.0972,0.093,0.069,0.0582,0.0605,0.0504,0.0594,0.0609,0.0439,0.0438,0.0438,0.0437,0.0436,0,-0.0376,-0.0289,-0.0143,-0.0064,0.0213,0.0411,0.0732,0.0906,0.1127,0.1209,0.1351,0.1377,0.1453,0.1314,0.1189,0.1016,0.097,0.0956,0.0853,0.0985,0.0994,0.0755,0.0739,0.093,0.0934,0.0937,0.094,0,-0.0372,-0.0287,-0.0186,-0.0104,0.0125,0.0346,0.0568,0.0833,0.1003,0.1182,0.1237,0.1373,0.1439,0.1363,0.1262,0.1352,0.1036,0.1073,0.0922,0.0912,0.0768,0.0747,0.0944,0.0945,0.0946,0.0947,0.0948,0,-0.0368,-0.0401,-0.0293,-0.0093,-0.005,0.0171,0.0512,0.0726,0.0942,0.1078,0.1251,0.1299,0.1428,0.146,0.1395,0.1496,0.1367,0.1252,0.123,0.1065,0.0913,0.0597,0.0866,0.0868,0.087,0.0872,0.0874,0,-0.0293,-0.0386,-0.0414,-0.0213,-0.0178,0.0008,0.024,0.0473,0.0682,0.0882,0.0995,0.1169,0.1286,0.138,0.1448,0.1336,0.1312,0.1438,0.0912,0.0891,0.0899,0.1151,0.1363,0.0904,0.09,0.0897,0.0895,0,-0.0329,-0.0485,-0.0482,-0.043,-0.0328,-0.0258,0.0015,0.0221,0.0379,0.0689,0.0865,0.1135,0.1185,0.1185,0.1211,0.1227,0.1323,0.1153,0.1138,0.0947,0.1128,0.117,0.1153,0.1359,0.136,0.136,0.0916,0,-0.03,-0.0391,-0.044,-0.0534,-0.0457,-0.0366,-0.0231,-0.0025,0.0192,0.0319,0.0594,0.0682,0.0797,0.089,0.0885,0.1039,0.0893,0.0843,0.0619,0.0868,0.063,0.0617,0.0641,0.0632,0.0624,0.0618,0,0,-0.0213,-0.0445,-0.0637,-0.0699,-0.0626,-0.058,-0.0488,-0.037,-0.0152,-0.0035,0.0044,0.0303,0.0327,0.0452,0.063,0.0615,0.0501,0.0563,0.0765,0.0784,0.0799,0.0589,0.0584,0.0605,0.0602,0.0599,0.0597,0,-0.03,-0.05,-0.0654,-0.0644,-0.0682,-0.0642,-0.0596,-0.0502,-0.0374,-0.0116,-0.0101,0.0051,0.0191,0.0209,0.0211,0.0508,0.0275,0.0557,0.0756,0.0705,0.0734,0.0757,0.0558,0.056,0.0578,0.0579,0.058,0,-0.0286,-0.0491,-0.0575,-0.0768,-0.0784,-0.0727,-0.0771,-0.0714,-0.0551,-0.0627,-0.0326,-0.0278,-0.0325,-0.0129,-0.0057,-0.0172,0.0015,0.0025,0.0062,-0.0017,-0.009,-0.0053,-0.0021,-0.045,-0.0452,-0.0454,0,0,-0.0342,-0.0552,-0.0656,-0.0782,-0.0807,-0.0787,-0.0773,-0.0719,-0.0661,-0.0611,-0.0518,-0.0458,-0.0398,-0.0349,-0.0319,-0.0185,-0.0381,-0.0084,-0.0036,0.0005,-0.0048,-0.011,-0.0074,-0.0461,-0.0461,-0.0461,0,0,-0.0306,-0.0582,-0.0622,-0.0821,-0.0807,-0.0837,-0.0833,-0.0774,-0.0671,-0.0619,-0.0645,-0.0636,-0.0438,-0.0535,-0.0615,-0.0359,-0.0581,-0.0566,-0.0238,-0.018,-0.0134,-0.0194,-0.0778,0,0,0,0,0,-0.0437,-0.0573,-0.061,-0.0655,-0.0843,-0.0848,-0.0846,-0.0829,-0.078,-0.0738,-0.0641,-0.0745,-0.0564,-0.0636,-0.0641,-0.0465,-0.0553,-0.0536,-0.0521,-0.0071,-0.0009,0.0044,0,0,0,0,0,0,-0.0455,-0.0521,-0.0602,-0.0675,-0.0712,-0.0849,-0.0858,-0.0852,-0.0784,-0.0774,-0.0749,-0.0749,-0.0794,-0.0643,-0.0646,-0.0474,-0.0778,-0.0546,-0.0532,-0.052,-0.005,0.0001,0.0045,0,0,0,0,0,-0.047,-0.0522,-0.0873,-0.0664,-0.0698,-0.07,-0.0855,-0.085,-0.0763,-0.0828,-0.082,-0.074,-0.0796,-0.0794,-0.0646,-0.0467,-0.0777,-0.0778,-0.0537,-0.0526,-0.0517,-0.0025,0,0,0,0,0,0,-0.048,-0.0465,-0.0874,-0.0875,-0.0645,-0.0683,-0.0708,-0.0849,-0.0817,-0.0813,-0.0831,-0.0826,-0.0798,-0.0796,-0.0795,-0.0454,-0.0777,-0.0777,-0.0777,-0.0529,-0.0521,-0.0513,0,0,0,0,0,0,-0.0435,-0.0469,-0.0874,-0.0853,-0.0852,-0.0669,-0.0691,-0.0705,-0.0817,-0.082,-0.0816,-0.0829,-0.08,-0.0798,-0.0796,-0.0815,-0.0776,-0.0776,-0.0777,-0.0777,-0.0522,-0.0515,0,0,0,0,0,0,-0.0445,-0.0473,-0.0852,-0.0851,-0.0849,-0.0854,-0.0672,-0.0864,-0.0816,-0.082,-0.0811,-0.0809,-0.0803,-0.0801,-0.0798,-0.0817,-0.0816,-0.0776,-0.0776,-0.0777,-0.0777,0,0,0,0,0,0,0,-0.0453,-0.0322,-0.0877,-0.0849,-0.0847,-0.0888,-0.0887,-0.0887,-0.0816,-0.0814,-0.0812,-0.081,-0.0774,-0.0774,-0.0775,-0.0819,0,0,-0.0776,-0.0776,0,0,0,0,0,0,0,0,-0.0304,-0.0318,-0.0877,-0.0878,-0.0878,-0.0888,-0.0888,-0.0887,-0.0815,-0.0814,-0.0812,-0.081,-0.0774,-0.0774,-0.0775,0,0,0,0,0,0,0,0,0,0,0,0,0,0,0,-0.0877,-0.0877,0,-0.0888,-0.0888,-0.0887,-0.0815,-0.0814,-0.0812,-0.0811,-0.0774,-0.0774,-0.0775,0,0,0,0,0,0,0,0,0,0,0,0,0,0,0,0,0,0,0,0,0,0,0,0,0,0,0,0,0,0,0,0,0,0,0,0,0,0,0,0,0,0,0,0,0,0,0,0,0,0,0,0,0,0,0,0,0,0,0,0,0,0,0,0,0,0,0,0,0]}],[{"header":{"parameterUnit":"kt","parameterCategory":2,"dx":1,"dy":1,"la1":30.253999710083008,"la2":30.299108505249023,"lo1":-89.0895004272461,"lo2":-89.04439544677734,"nx":28,"ny":28,"refTime":"2022-10-19T09:00:00:Z","depth":"4","parameterNumber":3,"parameterNumberName":"V-component_of_CURRENTS"},"data":[0.0772,0.09,0.0984,0.112,0.1233,0.1323,0.1349,0.1306,0.1212,0.1115,0.1014,0.0976,0.0798,0.0816,0.0603,0.0577,0.0663,0.0398,0.0397,0.0556,0.0567,0.0576,0.0612,0,0,0,0,0,0.0812,0.0889,0.1026,0.1279,0.1376,0.1495,0.1507,0.1473,0.1371,0.1196,0.1146,0.0966,0.077,0.0685,0.0599,0.0574,0.0556,0.0475,0.0616,0.0563,0.0575,0.0605,0,0,0,0,0,0,0.087,0.0941,0.1167,0.1399,0.1539,0.158,0.1603,0.1492,0.1394,0.119,0.1108,0.0929,0.0846,0.0704,0.0618,0.055,0.0558,0.0603,0.0612,0.0623,0.065,0.0774,0.0509,0,0,0,0,0,0.0892,0.1058,0.1242,0.1482,0.1642,0.1712,0.1747,0.1636,0.1514,0.1457,0.1216,0.1063,0.0864,0.0743,0.0661,0.0603,0.0678,0.0623,0.0631,0.0705,0.0804,0.0814,0.084,0.062,0.0622,0.0623,0.0623,0,0.0904,0.1057,0.1416,0.1541,0.1723,0.1831,0.1849,0.1826,0.1716,0.1501,0.1385,0.1179,0.1075,0.082,0.0761,0.0663,0.067,0.0653,0.0733,0.0826,0.0827,0.0852,0.0874,0.0633,0.0632,0.0631,0.063,0,0.0874,0.1117,0.1378,0.165,0.1746,0.1836,0.1876,0.1809,0.1756,0.158,0.1518,0.1355,0.1185,0.1099,0.0932,0.0922,0.0802,0.0766,0.0988,0.0984,0.0881,0.09,0.0649,0.0645,0.0642,0.064,0.0638,0,0.09,0.1093,0.14,0.1551,0.1703,0.1826,0.1862,0.1902,0.1787,0.1668,0.1615,0.1458,0.1352,0.1214,0.119,0.1039,0.1009,0.0989,0.0963,0.1133,0.1151,0.1034,0.1044,0.0961,0.0962,0.0963,0.0963,0,0.0825,0.1168,0.1378,0.1492,0.1746,0.1831,0.1886,0.1891,0.1841,0.1753,0.1673,0.153,0.142,0.1325,0.1261,0.1309,0.1078,0.1113,0.1034,0.1035,0.1042,0.105,0.0964,0.0964,0.0964,0.0965,0.0965,0,0.0885,0.1079,0.1356,0.1567,0.1654,0.1775,0.1848,0.1889,0.1836,0.1829,0.1729,0.1651,0.1523,0.1561,0.1383,0.1451,0.1411,0.1365,0.1359,0.1209,0.1241,0.1359,0.1344,0.1347,0.135,0.1352,0.1355,0,0.0752,0.1068,0.1206,0.1461,0.1652,0.1776,0.1816,0.1883,0.1916,0.1888,0.1807,0.1733,0.1772,0.1719,0.1657,0.155,0.1502,0.1599,0.1342,0.1335,0.13,0.1254,0.1491,0.1394,0.1389,0.1385,0.1382,0,0.0644,0.1033,0.1088,0.1242,0.1522,0.162,0.1735,0.1821,0.1853,0.1935,0.1879,0.1843,0.1797,0.1726,0.1678,0.161,0.1566,0.1599,0.1589,0.1581,0.1362,0.1313,0.1286,0.1516,0.1511,0.1507,0.141,0,0.0728,0.0902,0.1021,0.1285,0.1391,0.1577,0.17,0.1807,0.192,0.1937,0.1913,0.1851,0.1754,0.1789,0.1747,0.1651,0.1653,0.1606,0.1547,0.1549,0.1516,0.1496,0.1694,0.1691,0.1688,0.1686,0,0,0.0588,0.0769,0.0911,0.1101,0.121,0.1395,0.1545,0.1639,0.1793,0.1794,0.1855,0.1775,0.176,0.1636,0.1656,0.1661,0.1607,0.1657,0.157,0.1559,0.1547,0.1514,0.1497,0.1682,0.1681,0.1681,0.168,0,0.0608,0.0734,0.0861,0.1,0.1252,0.133,0.1424,0.1631,0.1712,0.1797,0.1762,0.1746,0.175,0.1647,0.1595,0.1636,0.1575,0.1666,0.1678,0.1556,0.1548,0.154,0.1507,0.1494,0.1674,0.1674,0.1675,0,0.0571,0.0698,0.0739,0.0932,0.1095,0.1235,0.1299,0.1508,0.1585,0.1548,0.1685,0.1651,0.1554,0.1548,0.156,0.1535,0.1517,0.1568,0.1578,0.151,0.1377,0.1369,0.1362,0.1448,0.1448,0.1448,0,0,0.0602,0.07,0.0849,0.094,0.105,0.1226,0.1325,0.1424,0.1513,0.1578,0.1599,0.1593,0.1542,0.1552,0.1506,0.1528,0.1433,0.1548,0.1559,0.1568,0.1509,0.1378,0.1371,0.1448,0.1448,0.1448,0,0,0.0597,0.076,0.0824,0.0924,0.106,0.1201,0.1325,0.1419,0.152,0.158,0.1534,0.1529,0.1564,0.1517,0.1523,0.1512,0.1455,0.1455,0.1575,0.1587,0.1597,0.1533,0.1462,0,0,0,0,0,0.0681,0.0732,0.0788,0.0822,0.1026,0.1167,0.12,0.133,0.1438,0.1518,0.1535,0.1522,0.1474,0.1478,0.1476,0.1528,0.145,0.1449,0.1449,0.1606,0.1619,0.163,0,0,0,0,0,0,0.0694,0.0732,0.0787,0.0918,0.0966,0.1164,0.1197,0.1234,0.143,0.145,0.1518,0.1517,0.145,0.1477,0.1476,0.1526,0.1462,0.1449,0.1449,0.1449,0.161,0.1621,0.163,0,0,0,0,0,0.0706,0.0736,0.1029,0.092,0.0962,0.114,0.1198,0.123,0.1424,0.1367,0.1382,0.1533,0.1448,0.145,0.1477,0.1528,0.1463,0.1462,0.1449,0.1449,0.1449,0.1616,0,0,0,0,0,0,0.0714,0.0773,0.1041,0.106,0.0924,0.1136,0.1173,0.1225,0.1331,0.1351,0.1357,0.1367,0.1447,0.1448,0.1449,0.1531,0.1463,0.1463,0.1463,0.1449,0.1449,0.1449,0,0,0,0,0,0,0.0758,0.0787,0.1051,0.1048,0.1068,0.1132,0.1164,0.1153,0.1325,0.1314,0.1329,0.1359,0.1389,0.1447,0.1448,0.1432,0.1464,0.1463,0.1463,0.1463,0.1449,0.1449,0,0,0,0,0,0,0.0773,0.0798,0.1045,0.106,0.1077,0.1295,0.1118,0.1289,0.1433,0.1303,0.1438,0.1439,0.1381,0.1388,0.1447,0.143,0.1431,0.1464,0.1464,0.1463,0.1463,0,0,0,0,0,0,0,0.0785,0.0577,0.0929,0.1069,0.1084,0.1229,0.1234,0.124,0.1434,0.1435,0.1437,0.1439,0.1466,0.1466,0.1465,0.1429,0,0,0.1464,0.1464,0,0,0,0,0,0,0,0,0.057,0.0576,0.093,0.0934,0.0937,0.123,0.1234,0.1239,0.1434,0.1435,0.1437,0.1438,0.1466,0.1466,0.1465,0,0,0,0,0,0,0,0,0,0,0,0,0,0,0,0.093,0.0933,0,0.1231,0.1234,0.1238,0.1434,0.1435,0.1436,0.1438,0.1466,0.1466,0.1465,0,0,0,0,0,0,0,0,0,0,0,0,0,0,0,0,0,0,0,0,0,0,0,0,0,0,0,0,0,0,0,0,0,0,0,0,0,0,0,0,0,0,0,0,0,0,0,0,0,0,0,0,0,0,0,0,0,0,0,0,0,0,0,0,0,0,0,0,0]}]]]